Darstellungsparameter: Aktuell verwendete Einstellungen:
Skalierung der Graphiken ... ?
xyx+y,   Skalierungsfaktor:      Skalierung: Modus: x, Faktor: 1
Darstellungszeitraum ... ?
Vom - - bis: - -   Zeitraum: 10.12.2020 - 10.12.2020
Min/Max/Avg-Anzeige ... ?
Zeige MMA aktuell
Zeige MMA Monat
Zeige MMA alles
Zeige --A aktuell
Zeige --A Monat
Zeige --A alles
Keine MMA-Anzeige
MMA:
Average (ber die Originaldaten)
MMA-Basis: 10.12.2020 - 10.12.2020
Quicknavigation für Darstellung... ?
Tage:      1T, 2T, 3T, 5T -1T -2T -3T -5T +1T +2T +3T +5T
Wochen: 1W, 2W, 3W -1W -2W -3W +1W +2W +3W
Monate: 1M, 3M, 6M -1M -3M -6M +1M +3M +6M
Jahre:    1J, 3J, 5J, 10J -1J -3J -5J -10J +1J +3J +5J +10J
Nutze für die Darstellung ... ?
Originaldaten oder Mittelwerte auf ...
Stundenbasis Tagesbasis Wochenbasis
Monatsbasis Jahresbasis      Datenbasis: Original-Daten
Darstellen als:
Statistik (Auto) Statistik J:M      Darstellung:
Zur Graphik,    zurück zur Übersicht aller Sensoren.
 
Tabellarische Datenbersicht: ?
 
Sensor: Nr:Datum:Temp:Abs-Feuchte:Windchill:Wind:
Aussen-T/F 1 10-12-2020 00:00:00 1.3 C 4.87 g/m*3 1.3 C 1.6 km/h
2 10-12-2020 00:05:00 1.3 C 4.87 g/m*3 1.3 C 3.2 km/h
3 10-12-2020 00:10:00 1.3 C 4.87 g/m*3 1.3 C 1.6 km/h
4 10-12-2020 00:15:00 1.3 C 4.87 g/m*3 1.3 C 0 km/h
5 10-12-2020 00:20:00 1.4 C 4.91 g/m*3 1.4 C 0 km/h
6 10-12-2020 00:25:00 1.4 C 4.91 g/m*3 1.4 C 0 km/h
7 10-12-2020 00:30:00 1.4 C 4.91 g/m*3 1.4 C 0 km/h
8 10-12-2020 00:35:00 1.4 C 4.85 g/m*3 1.4 C 4.8 km/h
9 10-12-2020 00:40:00 1.4 C 4.85 g/m*3 1.4 C 1.6 km/h
10 10-12-2020 00:45:00 1.4 C 4.85 g/m*3 1.4 C 0 km/h
11 10-12-2020 00:50:00 1.4 C 4.85 g/m*3 1.4 C 0 km/h
12 10-12-2020 00:55:00 1.4 C 4.91 g/m*3 1.4 C 0 km/h
13 10-12-2020 01:00:00 1.4 C 4.91 g/m*3 1.4 C 0 km/h
14 10-12-2020 01:05:00 1.4 C 4.91 g/m*3 1.4 C 0 km/h
15 10-12-2020 01:10:00 1.4 C 4.91 g/m*3 1.4 C 0 km/h
16 10-12-2020 01:15:00 1.4 C 4.91 g/m*3 1.4 C 0 km/h
17 10-12-2020 01:20:00 1.4 C 4.91 g/m*3 1.4 C 0 km/h
18 10-12-2020 01:25:00 1.4 C 4.91 g/m*3 1.4 C 0 km/h
19 10-12-2020 01:30:00 1.4 C 4.91 g/m*3 1.4 C 0 km/h
20 10-12-2020 01:35:00 1.4 C 4.91 g/m*3 1.4 C 0 km/h
21 10-12-2020 01:40:00 1.4 C 4.91 g/m*3 1.4 C 1.6 km/h
22 10-12-2020 01:45:00 1.5 C 4.94 g/m*3 1.5 C 3.2 km/h
23 10-12-2020 01:50:00 1.4 C 4.85 g/m*3 1.4 C 1.6 km/h
24 10-12-2020 01:55:00 1.5 C 4.89 g/m*3 1.5 C 0 km/h
25 10-12-2020 02:00:00 1.5 C 4.89 g/m*3 1.5 C 0 km/h
Sensor: Nr:Datum:Temp:Abs-Feuchte:Windchill:Wind:
Aussen-T/F 26 10-12-2020 02:05:00 1.5 C 4.89 g/m*3 1.5 C 1.6 km/h
27 10-12-2020 02:10:00 1.5 C 4.89 g/m*3 1.5 C 3.2 km/h
28 10-12-2020 02:15:00 1.5 C 4.94 g/m*3 1.5 C 1.6 km/h
29 10-12-2020 02:20:00 1.5 C 4.94 g/m*3 1.5 C 0 km/h
30 10-12-2020 02:25:00 1.6 C 4.97 g/m*3 1.6 C 0 km/h
31 10-12-2020 02:30:00 1.6 C 4.97 g/m*3 1.6 C 1.6 km/h
32 10-12-2020 02:35:00 1.6 C 4.97 g/m*3 1.6 C 0 km/h
33 10-12-2020 02:40:00 1.6 C 4.97 g/m*3 1.6 C 0 km/h
34 10-12-2020 02:45:00 1.6 C 4.97 g/m*3 1.6 C 0 km/h
35 10-12-2020 02:50:00 1.6 C 4.97 g/m*3 1.6 C 0 km/h
36 10-12-2020 02:55:00 1.6 C 4.97 g/m*3 1.6 C 0 km/h
37 10-12-2020 03:00:00 1.6 C 4.97 g/m*3 1.6 C 0 km/h
38 10-12-2020 03:05:00 1.6 C 4.97 g/m*3 1.6 C 0 km/h
39 10-12-2020 03:10:00 1.6 C 4.97 g/m*3 -0.33 C 6.4 km/h
40 10-12-2020 03:15:00 1.6 C 4.97 g/m*3 1.6 C 1.6 km/h
41 10-12-2020 03:20:00 1.6 C 4.97 g/m*3 1.6 C 3.2 km/h
42 10-12-2020 03:25:00 1.6 C 4.92 g/m*3 1.6 C 4.8 km/h
43 10-12-2020 03:30:00 1.6 C 4.92 g/m*3 1.6 C 0 km/h
44 10-12-2020 03:35:00 1.6 C 4.92 g/m*3 1.6 C 0 km/h
45 10-12-2020 03:40:00 1.6 C 4.92 g/m*3 1.6 C 0 km/h
46 10-12-2020 03:45:00 1.6 C 4.92 g/m*3 1.6 C 0 km/h
47 10-12-2020 03:50:00 1.6 C 4.92 g/m*3 1.6 C 0 km/h
48 10-12-2020 03:55:00 1.5 C 4.89 g/m*3 1.5 C 0 km/h
49 10-12-2020 04:00:00 1.4 C 4.85 g/m*3 1.4 C 0 km/h
50 10-12-2020 04:05:00 1.3 C 4.82 g/m*3 1.3 C 1.6 km/h
Sensor: Nr:Datum:Temp:Abs-Feuchte:Windchill:Wind:
Aussen-T/F 51 10-12-2020 04:10:00 1.2 C 4.79 g/m*3 1.2 C 0 km/h
52 10-12-2020 04:15:00 1.1 C 4.76 g/m*3 1.1 C 0 km/h
53 10-12-2020 04:20:00 0.9 C 4.69 g/m*3 0.9 C 0 km/h
54 10-12-2020 04:25:00 0.9 C 4.69 g/m*3 0.9 C 0 km/h
55 10-12-2020 04:30:00 0.8 C 4.66 g/m*3 0.8 C 0 km/h
56 10-12-2020 04:35:00 0.7 C 4.63 g/m*3 0.7 C 1.6 km/h
57 10-12-2020 04:40:00 0.6 C 4.6 g/m*3 0.6 C 3.2 km/h
58 10-12-2020 04:45:00 0.4 C 4.53 g/m*3 0.4 C 1.6 km/h
59 10-12-2020 04:50:00 0.3 C 4.55 g/m*3 0.3 C 1.6 km/h
60 10-12-2020 04:55:00 0.2 C 4.52 g/m*3 0.2 C 4.8 km/h
61 10-12-2020 05:00:00 0.1 C 4.49 g/m*3 0.1 C 3.2 km/h
62 10-12-2020 05:05:00 0 C 4.46 g/m*3 0 C 0 km/h
63 10-12-2020 05:10:00 -0.1 C 4.43 g/m*3 -0.1 C 0 km/h
64 10-12-2020 05:15:00 -0.1 C 4.43 g/m*3 -0.1 C 0 km/h
65 10-12-2020 05:20:00 -0.2 C 4.4 g/m*3 -0.2 C 0 km/h
66 10-12-2020 05:25:00 -0.3 C 4.41 g/m*3 -0.3 C 0 km/h
67 10-12-2020 05:30:00 -0.4 C 4.38 g/m*3 -0.4 C 0 km/h
68 10-12-2020 05:35:00 -0.4 C 4.38 g/m*3 -0.4 C 0 km/h
69 10-12-2020 05:40:00 -0.4 C 4.38 g/m*3 -0.4 C 0 km/h
70 10-12-2020 05:45:00 -0.5 C 4.35 g/m*3 -0.5 C 0 km/h
71 10-12-2020 05:50:00 -0.6 C 4.32 g/m*3 -0.6 C 0 km/h
72 10-12-2020 05:55:00 -0.7 C 4.29 g/m*3 -0.7 C 0 km/h
73 10-12-2020 06:00:00 -0.7 C 4.29 g/m*3 -0.7 C 0 km/h
74 10-12-2020 06:05:00 -0.7 C 4.29 g/m*3 -0.7 C 0 km/h
75 10-12-2020 06:10:00 -0.8 C 4.31 g/m*3 -0.8 C 0 km/h
Sensor: Nr:Datum:Temp:Abs-Feuchte:Windchill:Wind:
Aussen-T/F 76 10-12-2020 06:15:00 -0.8 C 4.26 g/m*3 -0.8 C 0 km/h
77 10-12-2020 06:20:00 -0.8 C 4.31 g/m*3 -0.8 C 0 km/h
78 10-12-2020 06:25:00 -0.8 C 4.31 g/m*3 -0.8 C 0 km/h
79 10-12-2020 06:30:00 -0.9 C 4.28 g/m*3 -0.9 C 0 km/h
80 10-12-2020 06:35:00 -0.9 C 4.28 g/m*3 -0.9 C 0 km/h
81 10-12-2020 06:40:00 -0.9 C 4.28 g/m*3 -0.9 C 0 km/h
82 10-12-2020 06:45:00 -1 C 4.25 g/m*3 -1 C 0 km/h
83 10-12-2020 06:50:00 -1.1 C 4.22 g/m*3 -1.1 C 0 km/h
84 10-12-2020 06:55:00 -1.1 C 4.22 g/m*3 -1.1 C 0 km/h
85 10-12-2020 07:00:00 -1.1 C 4.22 g/m*3 -1.1 C 0 km/h
86 10-12-2020 07:05:00 -1.2 C 4.19 g/m*3 -1.2 C 0 km/h
87 10-12-2020 07:10:00 -1.2 C 4.19 g/m*3 -1.2 C 0 km/h
88 10-12-2020 07:15:00 -1.2 C 4.19 g/m*3 -1.2 C 0 km/h
89 10-12-2020 07:20:00 -1.3 C 4.16 g/m*3 -1.3 C 0 km/h
90 10-12-2020 07:25:00 -1.4 C 4.13 g/m*3 -1.4 C 0 km/h
91 10-12-2020 07:30:00 -1.4 C 4.13 g/m*3 -1.4 C 0 km/h
92 10-12-2020 07:35:00 -1.5 C 4.1 g/m*3 -1.5 C 0 km/h
93 10-12-2020 07:40:00 -1.5 C 4.1 g/m*3 -1.5 C 0 km/h
94 10-12-2020 07:45:00 -1.5 C 4.1 g/m*3 -1.5 C 0 km/h
95 10-12-2020 07:50:00 -1.6 C 4.07 g/m*3 -1.6 C 0 km/h
96 10-12-2020 07:55:00 -1.6 C 4.07 g/m*3 -1.6 C 0 km/h
97 10-12-2020 08:00:00 -1.6 C 4.12 g/m*3 -1.6 C 0 km/h
98 10-12-2020 08:05:00 -1.6 C 4.12 g/m*3 -1.6 C 0 km/h
99 10-12-2020 08:10:00 -1.7 C 4.09 g/m*3 -1.7 C 0 km/h
100 10-12-2020 08:15:00 -1.7 C 4.05 g/m*3 -1.7 C 0 km/h
Sensor: Nr:Datum:Temp:Abs-Feuchte:Windchill:Wind:
Aussen-T/F 101 10-12-2020 08:20:00 -1.8 C 4.02 g/m*3 -1.8 C 0 km/h
102 10-12-2020 08:25:00 -1.8 C 4.02 g/m*3 -1.8 C 0 km/h
103 10-12-2020 08:30:00 -1.8 C 4.06 g/m*3 -1.8 C 0 km/h
104 10-12-2020 08:35:00 -1.8 C 4.06 g/m*3 -1.8 C 0 km/h
105 10-12-2020 08:40:00 -1.9 C 4.03 g/m*3 -1.9 C 0 km/h
106 10-12-2020 08:45:00 -1.9 C 4.03 g/m*3 -1.9 C 0 km/h
107 10-12-2020 08:50:00 -1.9 C 4.03 g/m*3 -1.9 C 0 km/h
108 10-12-2020 08:55:00 -1.9 C 4.03 g/m*3 -1.9 C 0 km/h
109 10-12-2020 09:00:00 -1.9 C 4.03 g/m*3 -1.9 C 0 km/h
110 10-12-2020 09:05:00 -1.9 C 4.03 g/m*3 -1.9 C 0 km/h
111 10-12-2020 09:10:00 -1.9 C 4.03 g/m*3 -1.9 C 0 km/h
112 10-12-2020 09:15:00 -1.9 C 4.03 g/m*3 -1.9 C 0 km/h
113 10-12-2020 09:20:00 -1.9 C 4.03 g/m*3 -1.9 C 0 km/h
114 10-12-2020 09:25:00 -1.9 C 4.03 g/m*3 -1.9 C 0 km/h
115 10-12-2020 09:30:00 -1.9 C 4.03 g/m*3 -1.9 C 0 km/h
116 10-12-2020 09:35:00 -1.8 C 4.06 g/m*3 -1.8 C 0 km/h
117 10-12-2020 09:40:00 -1.8 C 4.06 g/m*3 -1.8 C 0 km/h
118 10-12-2020 09:45:00 -1.8 C 4.06 g/m*3 -1.8 C 0 km/h
119 10-12-2020 09:50:00 -1.8 C 4.06 g/m*3 -1.8 C 0 km/h
120 10-12-2020 09:55:00 -1.7 C 4.09 g/m*3 -1.7 C 0 km/h
121 10-12-2020 10:00:00 -1.7 C 4.09 g/m*3 -1.7 C 0 km/h
122 10-12-2020 10:05:00 -1.6 C 4.16 g/m*3 -1.6 C 0 km/h
123 10-12-2020 10:10:00 -1.6 C 4.16 g/m*3 -1.6 C 0 km/h
124 10-12-2020 10:15:00 -1.5 C 4.19 g/m*3 -1.5 C 0 km/h
125 10-12-2020 10:20:00 -1.4 C 4.22 g/m*3 -1.4 C 0 km/h
Sensor: Nr:Datum:Temp:Abs-Feuchte:Windchill:Wind:
Aussen-T/F 126 10-12-2020 10:25:00 -1.4 C 4.22 g/m*3 -1.4 C 0 km/h
127 10-12-2020 10:30:00 -1.3 C 4.25 g/m*3 -1.3 C 0 km/h
128 10-12-2020 10:35:00 -1.3 C 4.25 g/m*3 -1.3 C 0 km/h
129 10-12-2020 10:40:00 -1.3 C 4.25 g/m*3 -1.3 C 0 km/h
130 10-12-2020 10:45:00 -1.3 C 4.25 g/m*3 -1.3 C 0 km/h
131 10-12-2020 10:50:00 -1.2 C 4.28 g/m*3 -1.2 C 0 km/h
132 10-12-2020 10:55:00 -1.1 C 4.31 g/m*3 -1.1 C 0 km/h
133 10-12-2020 11:00:00 -0.9 C 4.37 g/m*3 -0.9 C 1.6 km/h
134 10-12-2020 11:05:00 -0.8 C 4.4 g/m*3 -0.8 C 3.2 km/h
135 10-12-2020 11:10:00 -0.7 C 4.43 g/m*3 -0.7 C 3.2 km/h
136 10-12-2020 11:15:00 -0.6 C 4.46 g/m*3 -0.6 C 3.2 km/h
137 10-12-2020 11:20:00 -0.6 C 4.46 g/m*3 -0.6 C 3.2 km/h
138 10-12-2020 11:25:00 -0.5 C 4.49 g/m*3 -0.5 C 1.6 km/h
139 10-12-2020 11:30:00 -0.4 C 4.52 g/m*3 -0.4 C 1.6 km/h
140 10-12-2020 11:35:00 -0.4 C 4.52 g/m*3 -0.4 C 1.6 km/h
141 10-12-2020 11:40:00 -0.4 C 4.52 g/m*3 -0.4 C 1.6 km/h
142 10-12-2020 11:45:00 -0.3 C 4.56 g/m*3 -0.3 C 3.2 km/h
143 10-12-2020 11:50:00 -0.3 C 4.56 g/m*3 -0.3 C 3.2 km/h
144 10-12-2020 11:55:00 -0.2 C 4.59 g/m*3 -0.2 C 1.6 km/h
145 10-12-2020 12:00:00 -0.2 C 4.59 g/m*3 -0.2 C 0 km/h
146 10-12-2020 12:05:00 -0.1 C 4.62 g/m*3 -0.1 C 3.2 km/h
147 10-12-2020 12:10:00 0 C 4.65 g/m*3 0 C 1.6 km/h
148 10-12-2020 12:15:00 0.1 C 4.68 g/m*3 0.1 C 3.2 km/h
149 10-12-2020 12:20:00 0.1 C 4.68 g/m*3 0.1 C 0 km/h
150 10-12-2020 12:25:00 0.1 C 4.68 g/m*3 0.1 C 4.8 km/h
Sensor: Nr:Datum:Temp:Abs-Feuchte:Windchill:Wind:
Aussen-T/F 151 10-12-2020 12:30:00 0.1 C 4.68 g/m*3 0.1 C 0 km/h
152 10-12-2020 12:35:00 0.1 C 4.68 g/m*3 0.1 C 0 km/h
153 10-12-2020 12:40:00 0.1 C 4.68 g/m*3 0.1 C 0 km/h
154 10-12-2020 12:45:00 0.1 C 4.68 g/m*3 0.1 C 0 km/h
155 10-12-2020 12:50:00 0.1 C 4.68 g/m*3 0.1 C 0 km/h
156 10-12-2020 12:55:00 0.1 C 4.68 g/m*3 0.1 C 0 km/h
157 10-12-2020 13:00:00 0.1 C 4.68 g/m*3 0.1 C 0 km/h
158 10-12-2020 13:05:00 0.1 C 4.68 g/m*3 0.1 C 0 km/h
159 10-12-2020 13:10:00 0.2 C 4.72 g/m*3 0.2 C 0 km/h
160 10-12-2020 13:15:00 0.2 C 4.72 g/m*3 0.2 C 1.6 km/h
161 10-12-2020 13:20:00 0.3 C 4.75 g/m*3 0.3 C 0 km/h
162 10-12-2020 13:25:00 0.3 C 4.75 g/m*3 0.3 C 0 km/h
163 10-12-2020 13:30:00 0.4 C 4.78 g/m*3 0.4 C 0 km/h
164 10-12-2020 13:35:00 0.6 C 4.9 g/m*3 0.6 C 0 km/h
165 10-12-2020 13:40:00 0.7 C 4.93 g/m*3 0.7 C 0 km/h
166 10-12-2020 13:45:00 0.8 C 4.97 g/m*3 0.8 C 1.6 km/h
167 10-12-2020 13:50:00 0.9 C 5 g/m*3 0.9 C 0 km/h
168 10-12-2020 13:55:00 1 C 5.03 g/m*3 1 C 0 km/h
169 10-12-2020 14:00:00 1.1 C 5.02 g/m*3 1.1 C 0 km/h
170 10-12-2020 14:05:00 1.1 C 5.02 g/m*3 1.1 C 0 km/h
171 10-12-2020 14:10:00 1.2 C 5.1 g/m*3 1.2 C 0 km/h
172 10-12-2020 14:15:00 1.2 C 5.05 g/m*3 1.2 C 0 km/h
173 10-12-2020 14:20:00 1.2 C 5.05 g/m*3 1.2 C 0 km/h
174 10-12-2020 14:25:00 1.2 C 5.05 g/m*3 1.2 C 3.2 km/h
175 10-12-2020 14:30:00 1.2 C 5.05 g/m*3 1.2 C 0 km/h
Sensor: Nr:Datum:Temp:Abs-Feuchte:Windchill:Wind:
Aussen-T/F 176 10-12-2020 14:35:00 1.2 C 5.05 g/m*3 1.2 C 0 km/h
177 10-12-2020 14:40:00 1.2 C 5.05 g/m*3 1.2 C 0 km/h
178 10-12-2020 14:45:00 1.2 C 5.05 g/m*3 1.2 C 0 km/h
179 10-12-2020 14:50:00 1.2 C 5.05 g/m*3 1.2 C 3.2 km/h
180 10-12-2020 14:55:00 1.1 C 5.02 g/m*3 1.1 C 3.2 km/h
181 10-12-2020 15:00:00 1.1 C 4.96 g/m*3 1.1 C 0 km/h
182 10-12-2020 15:05:00 1.1 C 4.96 g/m*3 1.1 C 0 km/h
183 10-12-2020 15:10:00 1 C 4.93 g/m*3 1 C 1.6 km/h
184 10-12-2020 15:15:00 1.1 C 4.96 g/m*3 1.1 C 0 km/h
185 10-12-2020 15:20:00 1.1 C 4.96 g/m*3 1.1 C 0 km/h
186 10-12-2020 15:25:00 1.1 C 4.91 g/m*3 1.1 C 4.8 km/h
187 10-12-2020 15:30:00 1.1 C 4.91 g/m*3 1.1 C 3.2 km/h
188 10-12-2020 15:35:00 1.1 C 4.91 g/m*3 1.1 C 0 km/h
189 10-12-2020 15:40:00 1.1 C 4.86 g/m*3 1.1 C 1.6 km/h
190 10-12-2020 15:45:00 1.1 C 4.81 g/m*3 1.1 C 3.2 km/h
191 10-12-2020 15:50:00 1.1 C 4.81 g/m*3 1.1 C 0 km/h
192 10-12-2020 15:55:00 1.2 C 4.84 g/m*3 1.2 C 3.2 km/h
193 10-12-2020 16:00:00 1.2 C 4.84 g/m*3 1.2 C 0 km/h
194 10-12-2020 16:05:00 1.2 C 4.84 g/m*3 1.2 C 0 km/h
195 10-12-2020 16:10:00 1.2 C 4.89 g/m*3 1.2 C 1.6 km/h
196 10-12-2020 16:15:00 1.2 C 4.84 g/m*3 1.2 C 0 km/h
197 10-12-2020 16:20:00 1.2 C 4.89 g/m*3 1.2 C 0 km/h
198 10-12-2020 16:25:00 1.2 C 4.89 g/m*3 1.2 C 0 km/h
199 10-12-2020 16:30:00 1.2 C 4.84 g/m*3 1.2 C 0 km/h
200 10-12-2020 16:35:00 1.2 C 4.84 g/m*3 1.2 C 0 km/h
Sensor: Nr:Datum:Temp:Abs-Feuchte:Windchill:Wind:
Aussen-T/F 201 10-12-2020 16:40:00 1.2 C 4.84 g/m*3 1.2 C 0 km/h
202 10-12-2020 16:45:00 1.1 C 4.81 g/m*3 1.1 C 0 km/h
203 10-12-2020 16:50:00 1.1 C 4.76 g/m*3 1.1 C 1.6 km/h
204 10-12-2020 16:55:00 1.1 C 4.76 g/m*3 1.1 C 0 km/h
205 10-12-2020 17:00:00 1.1 C 4.81 g/m*3 1.1 C 0 km/h
206 10-12-2020 17:05:00 1 C 4.78 g/m*3 1 C 0 km/h
207 10-12-2020 17:10:00 0.9 C 4.69 g/m*3 0.9 C 0 km/h
208 10-12-2020 17:15:00 0.9 C 4.74 g/m*3 0.9 C 0 km/h
209 10-12-2020 17:20:00 0.9 C 4.74 g/m*3 0.9 C 0 km/h
210 10-12-2020 17:25:00 0.9 C 4.74 g/m*3 0.9 C 0 km/h
211 10-12-2020 17:30:00 0.9 C 4.74 g/m*3 0.9 C 0 km/h
212 10-12-2020 17:35:00 0.9 C 4.74 g/m*3 0.9 C 0 km/h
213 10-12-2020 17:40:00 0.9 C 4.74 g/m*3 0.9 C 0 km/h
214 10-12-2020 17:45:00 0.9 C 4.74 g/m*3 0.9 C 0 km/h
215 10-12-2020 17:50:00 0.9 C 4.69 g/m*3 0.9 C 0 km/h
216 10-12-2020 17:55:00 0.9 C 4.69 g/m*3 0.9 C 0 km/h
217 10-12-2020 18:00:00 0.8 C 4.71 g/m*3 0.8 C 0 km/h
218 10-12-2020 18:05:00 0.8 C 4.66 g/m*3 0.8 C 0 km/h
219 10-12-2020 18:10:00 0.8 C 4.66 g/m*3 0.8 C 0 km/h
220 10-12-2020 18:15:00 0.8 C 4.66 g/m*3 0.8 C 0 km/h
221 10-12-2020 18:20:00 0.8 C 4.66 g/m*3 0.8 C 0 km/h
222 10-12-2020 18:25:00 0.7 C 4.68 g/m*3 0.7 C 0 km/h
223 10-12-2020 18:30:00 0.7 C 4.68 g/m*3 0.7 C 0 km/h
224 10-12-2020 18:35:00 0.7 C 4.68 g/m*3 0.7 C 0 km/h
225 10-12-2020 18:40:00 0.7 C 4.68 g/m*3 0.7 C 0 km/h
Sensor: Nr:Datum:Temp:Abs-Feuchte:Windchill:Wind:
Aussen-T/F 226 10-12-2020 18:45:00 0.7 C 4.68 g/m*3 0.7 C 0 km/h
227 10-12-2020 18:50:00 0.7 C 4.68 g/m*3 0.7 C 0 km/h
228 10-12-2020 18:55:00 0.7 C 4.68 g/m*3 0.7 C 0 km/h
229 10-12-2020 19:00:00 0.7 C 4.68 g/m*3 0.7 C 0 km/h
230 10-12-2020 19:05:00 0.6 C 4.65 g/m*3 0.6 C 0 km/h
231 10-12-2020 19:10:00 0.6 C 4.65 g/m*3 0.6 C 0 km/h
232 10-12-2020 19:15:00 0.6 C 4.65 g/m*3 0.6 C 0 km/h
233 10-12-2020 19:20:00 0.6 C 4.65 g/m*3 0.6 C 0 km/h
234 10-12-2020 19:25:00 0.6 C 4.65 g/m*3 0.6 C 0 km/h
235 10-12-2020 19:30:00 0.6 C 4.65 g/m*3 0.6 C 0 km/h
236 10-12-2020 19:35:00 0.6 C 4.65 g/m*3 0.6 C 0 km/h
237 10-12-2020 19:40:00 0.6 C 4.7 g/m*3 0.6 C 0 km/h
238 10-12-2020 19:45:00 0.7 C 4.73 g/m*3 0.7 C 0 km/h
239 10-12-2020 19:50:00 0.7 C 4.73 g/m*3 0.7 C 0 km/h
240 10-12-2020 19:55:00 0.7 C 4.73 g/m*3 0.7 C 0 km/h
241 10-12-2020 20:00:00 0.7 C 4.73 g/m*3 0.7 C 0 km/h
242 10-12-2020 20:05:00 0.7 C 4.73 g/m*3 0.7 C 0 km/h
243 10-12-2020 20:10:00 0.8 C 4.76 g/m*3 0.8 C 0 km/h
244 10-12-2020 20:15:00 0.8 C 4.76 g/m*3 0.8 C 0 km/h
245 10-12-2020 20:20:00 0.8 C 4.76 g/m*3 0.8 C 0 km/h
246 10-12-2020 20:25:00 0.8 C 4.76 g/m*3 0.8 C 0 km/h
247 10-12-2020 20:30:00 0.8 C 4.76 g/m*3 0.8 C 0 km/h
248 10-12-2020 20:35:00 0.8 C 4.76 g/m*3 0.8 C 0 km/h
249 10-12-2020 20:40:00 0.9 C 4.79 g/m*3 0.9 C 0 km/h
250 10-12-2020 20:45:00 0.9 C 4.79 g/m*3 0.9 C 0 km/h
Sensor: Nr:Datum:Temp:Abs-Feuchte:Windchill:Wind:
Aussen-T/F 251 10-12-2020 20:50:00 0.9 C 4.79 g/m*3 0.9 C 0 km/h
252 10-12-2020 20:55:00 0.9 C 4.79 g/m*3 0.9 C 0 km/h
253 10-12-2020 21:00:00 0.9 C 4.79 g/m*3 0.9 C 0 km/h
254 10-12-2020 21:05:00 0.9 C 4.79 g/m*3 0.9 C 0 km/h
255 10-12-2020 21:10:00 0.9 C 4.79 g/m*3 0.9 C 0 km/h
256 10-12-2020 21:15:00 0.9 C 4.79 g/m*3 0.9 C 0 km/h
257 10-12-2020 21:20:00 0.9 C 4.79 g/m*3 0.9 C 3.2 km/h
258 10-12-2020 21:25:00 1 C 4.83 g/m*3 1 C 0 km/h
259 10-12-2020 21:30:00 1 C 4.83 g/m*3 1 C 0 km/h
260 10-12-2020 21:35:00 1 C 4.83 g/m*3 1 C 0 km/h
261 10-12-2020 21:40:00 1.1 C 4.86 g/m*3 1.1 C 0 km/h
262 10-12-2020 21:45:00 1.1 C 4.86 g/m*3 1.1 C 0 km/h
263 10-12-2020 21:50:00 1.1 C 4.86 g/m*3 1.1 C 0 km/h
264 10-12-2020 21:55:00 1.1 C 4.86 g/m*3 1.1 C 0 km/h
265 10-12-2020 22:00:00 1.1 C 4.86 g/m*3 1.1 C 0 km/h
266 10-12-2020 22:05:00 1.1 C 4.86 g/m*3 1.1 C 0 km/h
267 10-12-2020 22:10:00 1.1 C 4.86 g/m*3 1.1 C 0 km/h
268 10-12-2020 22:15:00 1.2 C 4.89 g/m*3 1.2 C 0 km/h
269 10-12-2020 22:20:00 1.2 C 4.89 g/m*3 1.2 C 0 km/h
270 10-12-2020 22:25:00 1.2 C 4.89 g/m*3 1.2 C 0 km/h
271 10-12-2020 22:30:00 1.2 C 4.89 g/m*3 1.2 C 0 km/h
272 10-12-2020 22:35:00 1.2 C 4.89 g/m*3 1.2 C 0 km/h
273 10-12-2020 22:40:00 1.2 C 4.89 g/m*3 1.2 C 0 km/h
274 10-12-2020 22:45:00 1.2 C 4.89 g/m*3 1.2 C 1.6 km/h
275 10-12-2020 22:50:00 1.2 C 4.89 g/m*3 1.2 C 0 km/h
Sensor: Nr:Datum:Temp:Abs-Feuchte:Windchill:Wind:
Aussen-T/F 276 10-12-2020 22:55:00 1.2 C 4.89 g/m*3 1.2 C 0 km/h
277 10-12-2020 23:00:00 1.2 C 4.89 g/m*3 1.2 C 0 km/h
278 10-12-2020 23:05:00 1.2 C 4.89 g/m*3 1.2 C 0 km/h
279 10-12-2020 23:10:00 1.2 C 4.89 g/m*3 1.2 C 1.6 km/h
280 10-12-2020 23:15:00 1.2 C 4.89 g/m*3 1.2 C 0 km/h
281 10-12-2020 23:20:00 1.2 C 4.84 g/m*3 1.2 C 0 km/h
282 10-12-2020 23:25:00 1.2 C 4.84 g/m*3 1.2 C 0 km/h
283 10-12-2020 23:30:00 1.2 C 4.84 g/m*3 1.2 C 0 km/h
284 10-12-2020 23:35:00 1.2 C 4.84 g/m*3 1.2 C 1.6 km/h
285 10-12-2020 23:40:00 1.3 C 4.87 g/m*3 1.3 C 4.8 km/h
286 10-12-2020 23:45:00 1.3 C 4.87 g/m*3 1.3 C 1.6 km/h
287 10-12-2020 23:50:00 1.3 C 4.87 g/m*3 1.3 C 0 km/h
288 10-12-2020 23:55:00 1.3 C 4.87 g/m*3 1.3 C 0 km/h

Legende:
   Min
   Max


Maximal/Minimal-Werte vom 10.12.2020 - 10.12.2020

Sensor Min Max Avg
Temp
(Aussen-T/F)
-1.9 °C
10-12-2020  08:40:00
1.6 °C
10-12-2020  02:25:00
0.38 °C
Abs-Feuchte
(Aussen-T/F)
4.02 g/m*3
10-12-2020  08:20:00
5.1 g/m*3
10-12-2020  14:10:00
4.64 g/m*3
Windchill
(Aussen-T/F)
-1.9 C
10-12-2020  08:40:00
1.6 C
10-12-2020  02:25:00
0.37 C

Die Daten stammen von einer Davis Vantage Pro 2 Wetter-Station und werden unter Linux mit der Software wview2wettercgi und aufbereitet. Alle Angaben erfolgen ohne Gewähr für ihre Vollständigkeit oder Richtigkeit.
Kontakt: Rainer Krienke krienke@uni-koblenz.de . Meine Webseiten an der Uni Koblenz oder privat.
Version: $Revision: 0.78 $